Printer-friendly version

IAU Minor Planet Center

Minor Planet Center

MPEC 2007-T82 : 2007 TQ24

The following Minor Planet Electronic Circular may be linked-to from your own Web pages, but must not otherwise be redistributed electronically.


Read MPEC 2007-T81 Read MPEC 2007-T83


M.P.E.C. 2007-T82                                Issued 2007 Oct. 12, 14:16 UT

     The Minor Planet Electronic Circulars contain information on unusual
         minor planets and routine data on comets.  They are published
   on behalf of Commission 20 of the International Astronomical Union by the
          Minor Planet Center, Smithsonian Astrophysical Observatory,
                          Cambridge, MA 02138, U.S.A.

             Prepared using the Tamkin Foundation Computer Network

                              MPC@CFA.HARVARD.EDU
          URL http://www.cfa.harvard.edu/iau/mpc.html  ISSN 1523-6714

                                   2007 TQ24

Observations:
     K07T24Q* C2007 10 11.20632 01 02 25.72 -11 01 36.4          18.8 V ET082703
     K07T24Q  C2007 10 11.21340 01 02 22.66 -11 02 01.8          19.0 V ET082703
     K07T24Q  C2007 10 11.22050 01 02 19.60 -11 02 26.9          19.3 V ET082703
     K07T24Q  C2007 10 11.22759 01 02 16.51 -11 02 54.0          19.6 V ET082703
     K07T24Q  C2007 10 11.29957 01 01 45.51 -11 07 10.5          19.1 V ET082703
     K07T24Q  C2007 10 11.30009 01 01 45.33 -11 07 13.0          19.2 V ET082703
     K07T24Q  C2007 10 11.30063 01 01 45.12 -11 07 14.6          19.2 V ET082703
     K07T24Q  C2007 10 11.33394 01 01 30.79 -11 09 11.9          19.3 R ET082651
     K07T24Q  C2007 10 11.33504 01 01 30.30 -11 09 16.1          19.2 R ET082651
     K07T24Q  C2007 10 11.33613 01 01 29.85 -11 09 19.3          19.4 R ET082651
     K07T24Q  C2007 10 11.33935 01 01 28.45 -11 09 32.0          19.3 V ET082703
     K07T24Q  C2007 10 11.33988 01 01 28.23 -11 09 32.7          19.5 V ET082703
     K07T24Q  C2007 10 11.34040 01 01 27.98 -11 09 34.4          19.4 V ET082703
     K07T24Q  C2007 10 11.34094 01 01 27.76 -11 09 37.0          19.1 V ET082703
     K07T24Q  C2007 10 11.34966 01 01 23.48 -11 10 10.8          18.9 R ET082649
     K07T24Q  C2007 10 11.35203 01 01 22.46 -11 10 19.1          18.9 R ET082649
     K07T24Q  C2007 10 11.35439 01 01 21.46 -11 10 27.6          19.3 R ET082649
     K07T24Q  C2007 10 11.35676 01 01 20.44 -11 10 35.6          19.0 R ET082649
     K07T24Q  C2007 10 12.02256 00 56 53.08 -11 48 50.8          18.8 R ET082204
     K07T24Q  C2007 10 12.02886 00 56 50.49 -11 49 11.7                 ET082204
     K07T24Q 5C2007 10 12.26667 00 55 18.86 -12 02 13.7          19.6 R ET082673
     K07T24Q 5C2007 10 12.27234 00 55 16.61 -12 02 31.3                 ET082673
     K07T24Q 5C2007 10 12.27870 00 55 14.00 -12 02 51.9                 ET082673
     K07T24Q 5C2007 10 12.28090 00 55 13.15 -12 02 59.4                 ET082673
     K07T24Q  C2007 10 12.32782 00 54 53.67 -12 05 31.5          18.8 V ET082G96
     K07T24Q  C2007 10 12.33074 00 54 52.52 -12 05 41.2          18.7 V ET082G96
     K07T24Q  C2007 10 12.33376 00 54 51.30 -12 05 50.8          18.8 V ET082G96
     K07T24Q  C2007 10 12.33674 00 54 50.07 -12 06 00.5          18.6 V ET082G96

Observer details:
204 Schiaparelli Observatory.  Observer L. Buzzi.  0.60-m f/4.64 reflector
    + CCD.
649 Powell Observatory, Louisburg.  Observer R. Trentman.  0.75-m Newtonian
    reflector + CCD.
651 Grasslands Observatory, Tucson.  Observer J. E. McGaha.  0.62-m f/5.1
    Newtonian reflector + CCD.
673 Table Mountain Observatory, Wrightwood.  Observer J. Young.  0.61-m f/16
    Cassegrain + CCD.
703 Catalina Sky Survey.  Observer A. R. Gibbs.  Measurers E. C. Beshore,
    A. Boattini, G. J. Garradd, A. R. Gibbs, A. D. Grauer, R. E. Hill,
    R. A. Kowalski, S. M. Larson, R. H. McNaught.  0.68-m Schmidt + CCD.
G96 Mt. Lemmon Survey.  Observer R. E. Hill.  Measurers E. C. Beshore,
    A. Boattini, G. J. Garradd, A. R. Gibbs, A. D. Grauer, R. E. Hill,
    R. A. Kowalski, S. M. Larson, R. H. McNaught.  1.5-m reflector + CCD.

Orbital elements:
2007 TQ24                                           PHA, Earth MOID = 0.0169 AU
Epoch 2007 Oct. 27.0 TT = JDT 2454400.5                 MPC
M 155.22892              (2000.0)            P               Q
n   1.39332015     Peri.   30.00936     -0.83237698     +0.55408058
a   0.7939054      Node   183.70473     -0.53817628     -0.81326490
e   0.5407548      Incl.   10.67571     -0.13234370     -0.17774958
P   0.71           H   21.9           G   0.15           U   9
Residuals in seconds of arc
071011 703  0.6+  0.1+    071011 703  0.3-  0.5-    071012 673  0.7-  0.8-
071011 703  0.3+  0.3+    071011 703  0.2-  0.6+    071012 673  0.1+  0.2+
071011 703  0.2+  0.8+    071011 703  0.6-  0.8+    071012 673  0.2-  0.5+
071011 703  0.4-  0.8-    071011 703  0.4-  0.1+    071012 673  0.5+  0.2+
071011 703  0.7-  0.1+    071011 649  0.4+  0.1-    071012 G96  0.3-  0.0
071011 703  0.0   0.6-    071011 649  0.2+  0.1-    071012 G96  0.2+  0.2-
071011 703  0.3+  0.2-    071011 649  0.2+  0.3-    071012 G96  0.2+  0.0
071011 651  0.2+  0.0     071011 649  0.0   0.0     071012 G96  0.1-  0.1-
071011 651  0.1-  0.3-    071012 204  0.3+  0.1+
071011 651  0.2+  0.3+    071012 204  0.1+  0.2+

Ephemeris:
2007 TQ24                a,e,i = 0.79, 0.54, 11                  q = 0.3646
Date    TT    R. A. (2000) Decl.     Delta      r     Elong.  Phase     V
2007 10 07    01 34.78   -06 04.5    0.151    1.146   163.9    14.0    18.9
2007 10 09    01 18.55   -08 36.9    0.160    1.154   164.4    13.5    19.0
2007 10 11    01 03.84   -10 48.6    0.170    1.162   162.4    15.0    19.2
2007 10 13    00 50.64   -12 40.4    0.181    1.169   159.2    17.6    19.4
2007 10 15    00 38.91   -14 14.1    0.193    1.175   155.5    20.6    19.7
2007 10 17    00 28.55   -15 31.7    0.205    1.182   151.7    23.6    19.9
2007 10 19    00 19.45   -16 35.6    0.219    1.187   148.0    26.4    20.2
2007 10 21    00 11.51   -17 27.5    0.233    1.193   144.5    29.0    20.4
2007 10 23    00 04.61   -18 09.4    0.247    1.198   141.1    31.4    20.6
2007 10 25    23 58.65   -18 42.8    0.262    1.202   138.0    33.6    20.8
2007 10 27    23 53.52   -19 09.0    0.278    1.206   135.0    35.7    21.0
2007 10 29    23 49.13   -19 29.1    0.293    1.210   132.1    37.5    21.2
2007 10 31    23 45.42   -19 44.0    0.309    1.213   129.5    39.2    21.3
2007 11 02    23 42.29   -19 54.5    0.325    1.216   126.9    40.7    21.5
2007 11 04    23 39.71   -20 01.2    0.341    1.218   124.5    42.2    21.6
2007 11 06    23 37.61   -20 04.6    0.358    1.220   122.1    43.5    21.8

Timothy B. Spahr             (C) Copyright 2007 MPC           M.P.E.C. 2007-T82

Read MPEC 2007-T81 Read MPEC 2007-T83


Our Web policy. Index to the CBAT/MPC/ICQ pages.


Valid HTML 4.01!